Location: Didlington
(52.5333°N, 0.6333°E)
Time: 21:16:44
(UTC+00:00)

Daily predictions for brighter satellites

Satellite Brightness Start Highest point End
(mag) Time Altitude Azimuth Time Altitude Azimuth Time Altitude Azimuth
Cosmos 1515 Rocket 3.7 16:50:04 10° SSW 16:54:23 81° WNW 16:58:44 10° N
Tsikada Rocket 4.1 16:49:10 10° S 16:55:11 61° E 17:01:16 10° NNE
BlueWalker 3 1.8 16:51:46 10° W 16:55:27 78° N 16:59:06 10° E
Cosmos 1455 1.8 16:54:00 10° N 16:57:11 57° ENE 17:00:21 10° SSE
BREEZE-M DEB (TANK) 3.4 16:55:41 10° SSW 16:57:16 16° SSE 16:59:02 10° ESE
USA 81 4.1 16:52:08 10° S 16:57:18 62° E 17:02:31 10° NNE
Cosmos 2278 Rocket 2.2 16:51:41 10° NNW 16:57:23 67° NE 17:03:01 10° SE
COSMO-SKYMED 1 4.2 16:57:23 10° NE 17:00:10 16° E 17:02:56 10° SE
Cosmos 2219 Rocket 2.3 16:55:51 10° SW 17:01:27 80° WNW 17:07:07 10° NNE
ISS -1.5 17:01:17 10° S 17:03:15 15° SE 17:05:13 10° ESE
ARGOS Delta rocket 3.8 16:58:49 10° SSE 17:03:18 54° ENE 17:07:40 10° N
CZ-4C R/B 3.6 17:02:39 10° SE 17:05:02 14° ESE 17:07:39 10° ENE
CSL-04 DEB 4.2 17:03:24 10° SSE 17:07:11 60° ENE 17:10:56 10° N
Cosmos 1758 4.0 17:05:48 10° NNW 17:09:36 57° W 17:13:23 10° S
Meteor 1-21 4.4 17:04:15 10° S 17:09:39 51° E 17:15:07 10° NNE
USA 306 1.4 17:08:39 10° WNW 17:10:35 54° N 17:12:55 12° E
SL-14 R/B 3.4 17:08:01 10° SSW 17:11:46 72° W 17:15:35 10° N
CORIOLIS 4.2 17:06:42 10° SSE 17:12:09 90° NNE 17:17:38 10° NNW
Cosmos 1763 Rocket 3.8 17:07:36 10° S 17:12:34 47° ESE 17:17:29 10° NE
Cosmos 1733 Rocket 3.3 17:09:02 10° N 17:13:16 45° ENE 17:17:30 10° SSE
Spot 4 Rocket 4.0 17:08:33 10° SSE 17:13:40 76° ENE 17:18:49 10° NNW
YAOGAN 1 3.7 17:11:15 10° ESE 17:14:32 22° ENE 17:17:51 10° N
Cosmos 540 Rocket 3.9 17:13:31 10° S 17:18:19 42° ESE 17:23:08 10° NE
Landsat 7 4.3 17:16:15 10° SE 17:20:33 38° ENE 17:24:53 10° N
Cosmos 2322 3.7 17:15:08 10° SSW 17:20:51 80° ESE 17:26:37 10° NNE
USA 215 3.3 17:16:12 10° ENE 17:22:42 82° NNW 17:29:15 10° WSW
Cosmos 2279 Rocket 3.9 17:19:08 10° N 17:25:22 73° ENE 17:31:33 10° SSE
Cosmos 2228 Rocket 3.6 17:22:03 10° SSE 17:26:15 39° E 17:30:30 10° NNE
NOSS 8 (A) 4.3 17:24:39 10° NW 17:27:31 74° SW 17:30:48 10° SE
Cosmos 1656 Rocket 4.4 17:22:44 10° NNW 17:27:37 32° NE 17:32:32 10° ESE
Cosmos 1898 Rocket 3.6 17:22:50 10° NNW 17:28:03 57° ENE 17:33:17 10° SE
Cosmos 1980 Rocket 4.3 17:25:08 10° NW 17:28:07 14° NNW 17:31:07 10° NNE
Aureole 1 Rocket 4.4 17:24:14 10° NNW 17:32:02 73° ENE 17:39:05 10° SSE
PSLV R/B 3.6 17:30:21 10° SSE 17:34:24 79° WSW 17:38:32 10° NNW
Okean 1-7 3.8 17:36:17 10° SSE 17:39:58 29° E 17:43:22 12° NNE
Cosmos 1980 4.0 17:34:47 10° S 17:40:08 46° ESE 17:44:57 13° NE
SL-16 R/B 3.7 17:37:02 10° SE 17:40:14 16° E 17:40:55 15° E
Cosmos 1953 2.0 17:38:25 10° N 17:42:11 83° E 17:45:54 10° SSE
SMAP 4.1 17:39:04 10° S 17:43:36 50° W 17:48:10 10° NNW
SKYMED 2 3.9 17:44:27 10° NNE 17:48:38 42° E 17:52:46 10° S
NOSS 0 Rocket 3.9 17:43:53 10° SSW 17:49:59 70° ESE 17:55:40 12° NE
Cosmos 1818 3.6 17:45:21 10° NW 17:50:48 61° NE 17:56:11 10° ESE
ATLAS 2AS CENTAUR R/B 2.7 17:45:30 10° NW 17:52:20 64° NE 17:58:58 10° ESE
SL-16 R/B 4.2 17:48:12 10° N 17:53:32 31° NW 17:58:52 10° WSW
Cosmos 2369 Rocket 2.8 17:48:41 10° NNW 17:53:46 34° NE 17:56:55 20° E
Resurs 01 Rocket 3.4 17:57:26 14° NNE 17:57:26 14° NNE 17:58:42 10° NNE
COSMOS 2428 2.9 17:51:35 10° SW 17:57:16 72° WNW 18:02:53 11° NNE
ACS3 Solar Sail 1.9 17:51:08 10° SSE 17:57:25 63° ENE 18:03:45 10° N
Cosmos 372 Rocket 3.9 17:53:02 10° NNW 17:58:09 89° ENE 18:03:14 10° SSE
IGS 5A 4.2 17:54:19 10° S 17:58:15 55° W 18:02:14 10° NNW
Cosmos 2333 Rocket 3.9 17:54:18 10° W 17:59:03 27° NW 18:03:50 10° NNE
DNEPR-1 R/B 4.5 17:58:12 10° NW 18:03:01 52° SW 18:07:13 10° SSE
BREEZE-M DEB (TANK) 3.8 17:56:28 10° WSW 18:05:29 60° S 18:07:22 27° ESE
NOSS 8 (F) 4.3 18:01:40 10° SW 18:05:33 81° SE 18:06:43 37° NE
Cosmos 1908 Rocket 3.6 18:02:06 10° N 18:06:22 50° ENE 18:10:34 10° SSE
Cosmos 2322 Rocket 4.1 18:04:03 10° W 18:08:23 22° NNW 18:12:45 10° NNE
Cosmos 2360 Rocket 4.0 18:06:43 10° W 18:11:15 24° NW 18:15:50 10° NNE
EO 1 Delta rocket 3.8 18:07:47 10° NNE 18:12:34 62° E 18:17:09 10° S
Meteor 1-31 Rocket 2.4 18:10:03 10° SSE 18:13:37 82° ENE 18:17:13 10° NNW
Okean 3 3.7 18:10:02 10° SSW 18:14:07 69° WNW 18:18:15 10° N
Cosmos 1707 Rocket 3.7 18:10:29 10° SSW 18:14:55 76° W 18:19:23 10° N
Cosmos 2297 3.9 18:11:26 10° NNW 18:17:02 49° NE 18:20:17 24° ESE
Okean 2 3.4 18:13:57 10° SSW 18:17:54 77° WNW 18:21:53 10° N
Cosmos 1937 Rocket 3.5 18:12:59 10° NNW 18:18:09 84° WSW 18:23:19 10° SSE
SL-16 R/B 4.3 18:15:20 10° WNW 18:18:56 17° NNW 18:22:34 10° NNE
CZ-2C R/B 2.3 18:22:18 58° E 18:22:28 60° ENE 18:25:49 10° N
Cosmos 858 Rocket 4.4 18:17:29 10° NNW 18:22:44 84° ENE 18:27:57 10° SSE
Cosmos 2026 Rocket 4.3 18:17:48 10° SSE 18:23:46 44° E 18:29:44 10° NNE
BREEZE-M DEB (TANK) 3.9 18:13:04 10° WSW 18:26:50 52° SSE 18:28:56 32° ESE
Cosmos 1943 Rocket 3.5 18:21:35 10° NW 18:26:51 41° WSW 18:32:04 10° S
RESURS DK-1 4.2 18:24:07 10° NW 18:27:42 31° WSW 18:31:17 10° S
Cosmos 1428 Rocket 4.4 18:24:25 10° S 18:30:31 64° E 18:36:36 10° NNE
YAOGAN 3 4.4 18:27:24 10° SSE 18:31:39 84° ENE 18:35:57 10° NNW
Cosmos 1862 Rocket 4.2 18:28:34 10° SSW 18:32:53 57° WNW 18:37:15 10° N
BlueWalker 3 2.0 18:29:36 10° WNW 18:33:15 64° SSW 18:33:53 52° SSE
Cosmos 2237 Rocket 2.2 18:28:29 10° SSW 18:34:11 84° WNW 18:37:58 22° NNE
COSMO-SKYMED 1 2.8 18:32:34 11° N 18:36:50 70° WNW 18:41:09 10° SSW
ISS -3.0 18:36:11 10° SW 18:39:01 44° S 18:39:01 44° S
CZ-4B R/B 4.3 18:35:58 10° S 18:39:29 52° WSW 18:42:58 10° NNW
Cosmos 2278 Rocket 4.4 18:36:23 10° NW 18:41:00 26° WSW 18:45:37 10° SSW
NOAA 6 4.4 18:36:24 10° S 18:41:28 64° WSW 18:46:35 10° NNW
USA 306 3.5 18:39:27 10° WNW 18:40:49 31° W 18:40:49 31° W
Cosmos 1782 Rocket 3.6 18:37:54 10° N 18:41:41 55° NE 18:41:41 55° NE
Cosmos 2344 3.6 18:36:53 10° WSW 18:44:16 71° NW 18:48:48 26° NE
Cosmos 2219 Rocket 4.1 18:41:51 10° W 18:46:16 23° NW 18:50:24 11° NNE
YAOGAN 1 3.2 18:45:57 10° S 18:50:08 54° W 18:54:22 10° NNW
YAOGAN 11 4.1 18:51:31 57° SSE 18:51:31 57° SSE 18:55:07 10° S
CZ-4C R/B 1.8 18:47:29 10° SW 18:52:01 78° SE 18:53:04 57° ENE
Nadezhda 4 Rocket 4.1 18:48:00 10° SSW 18:54:05 72° WNW 19:00:17 10° N
Cosmos 1125 Rocket 4.5 18:49:38 10° NNW 18:53:08 31° NNE 18:53:08 31° NNE
ATLAS 5 CENTAUR R/B 3.0 18:53:38 10° SSW 18:54:38 18° SSW 18:54:38 18° SSW
Cosmos 2195 Rocket 4.3 18:52:25 10° S 18:58:37 85° E 19:04:48 10° NNE
Meteor 1-24 Rocket 4.0 18:52:58 10° SSE 18:58:09 50° ESE 18:58:09 50° ESE
CZ-4B R/B 4.1 19:00:45 31° NNE 19:00:45 31° NNE 19:03:57 10° N
SPOT 1/Viking Rocket 3.7 18:56:17 10° S 19:01:25 71° WSW 19:06:36 10° NNW
Cosmos 1703 Rocket 3.5 18:57:09 10° SSW 19:01:36 84° WNW 19:02:12 66° N
USA 215 3.4 19:03:32 44° NE 19:05:30 61° N 19:11:56 10° W
Resurs 1-3 4.0 19:01:38 10° S 19:05:54 61° WSW 19:10:12 10° NNW
Meteor 2-5 Rocket 4.3 19:03:37 10° S 19:07:38 43° SSE 19:07:38 43° SSE
Cosmos 1656 Rocket 4.0 19:06:09 10° NW 19:11:34 63° WSW 19:14:50 24° S
Cosmos 841 Rocket 3.8 19:08:03 10° SW 19:13:17 65° WNW 19:15:03 40° N
Cosmos 1980 Rocket 4.3 19:12:17 10° NNW 19:14:42 13° N 19:14:42 13° N
CZ-4 R/B 4.1 19:24:00 10° NNW 19:24:00 10° NNW 19:24:03 10° NNW
Cosmos 1553 Rocket 3.8 19:16:57 10° N 19:23:09 81° E 19:23:51 70° SE
SL-16 R/B 2.2 19:17:45 10° SSW 19:22:50 70° S 19:22:50 70° S
ADEOS 3.6 19:29:31 72° SW 19:29:47 74° WSW 19:35:03 10° NNW
Resurs 01 Rocket 3.7 19:34:51 19° NNW 19:34:51 19° NNW 19:36:08 10° NNW
Cosmos 2369 Rocket 2.5 19:32:37 10° NW 19:38:07 61° WSW 19:38:45 57° SW
Cosmos 1092 Rocket 4.3 19:34:00 10° SSW 19:40:08 65° WNW 19:46:22 10° N
ACS3 Solar Sail 3.6 19:35:52 10° SSW 19:41:25 30° W 19:46:58 10° NNW
ATLAS 2AS CENTAUR R/B 3.6 19:36:43 10° NW 19:43:02 42° WSW 19:46:35 24° S
Cosmos 2333 Rocket 4.5 19:42:50 10° NW 19:45:27 13° N 19:46:33 12° N
Cosmos 2237 Rocket 4.0 20:14:29 10° W 20:19:05 25° NW 20:19:48 24° NNW
CZ-4C R/B 4.2 20:36:11 10° W 20:38:08 22° WNW 20:38:08 22° WNW
USA 215 4.3 20:50:53 40° WNW 20:50:53 40° WNW 20:54:49 10° WNW
